Regional Weather Roundup
Issued by NWS Newport/Morehead, NC

Current Version | Previous Version | Text Only | Print | Product List | Glossary Off
Versions: 1 2 3 4 5 6 7 8 9 10 11 12 13 14 15 16 17 18 19 20 21 22 23 24 25 26 27 28 29 30 31 32 33 34 35 36 37 38 39 40 41 42 43 44 45 46 47 48 49 50
000 ASUS42 KMHX 282010 RWRMHX WEATHER ROUNDUP FOR EASTERN NORTH CAROLINA NATIONAL WEATHER SERVICE NEWPORT/MOREHEAD CITY NC 300 PM EST FRI NOV 28 2014 NOTE: "FAIR" INDICATES FEW OR NO CLOUDS BELOW 12,000 FEET WITH NO SIGNIFICANT WEATHER AND/OR OBSTRUCTIONS TO VISIBILITY NCZ015>017-031-032-045>047-102-103-282100- NORTH COAST CITY SKY/WX TMP DP RH WIND PRES REMARKS EDENTON MOSUNNY 44 24 46 N6 30.28S ELIZABETH CITY SUNNY 47 22 37 N9 30.27S KITTY HAWK CLEAR 42 23 46 N8 30.25S MANTEO SUNNY 42 23 46 N9 30.27R $$ NCZ045>047-081-094-103-104-282100- CENTRAL COAST CITY SKY/WX TMP DP RH WIND PRES REMARKS FRISCO SUNNY 43 26 51 VRB7 30.26R SWANQUARTER N/A 45 N/A N/A NW10 30.24S $$ NCZ095-097-098-100-101-282100- SOUTHERN COAST CITY SKY/WX TMP DP RH WIND PRES REMARKS BEAUFORT SUNNY 45 24 43 N7 30.29R CEDAR ISLAND N/A 43 N/A N/A NW10 30.30S JACKSONVILLE SUNNY 46 20 35 NW6 30.28S PINEY ISLAND CLEAR 46 24 42 N9 30.28S WILMINGTON SUNNY 47 21 35 NW7 30.28F $$ NCZ011>013-027>030-043-044-078>080-089-090>093-098-282100- COASTAL PLAIN CITY SKY/WX TMP DP RH WIND PRES REMARKS AHOSKIE SUNNY 42 19 40 CALM 30.29R CLINTON SUNNY 46 23 40 W7 30.31R ELIZABETHTOWN SUNNY 46 19 34 W3 30.30R GOLDSBORO SUNNY 46 21 37 W10 30.28R GREENVILLE SUNNY 45 21 39 NW5 30.29S HAVELOCK SUNNY 46 21 37 NW7 30.30R KENANSVILLE SUNNY 45 20 36 W7 30.31R KINSTON SUNNY 45 19 36 NW5 30.30S NEW BERN SUNNY 47 21 35 CALM 30.29S RICHLANDS SUNNY 45 19 36 W5 30.29S ROCKY MOUNT SUNNY 45 20 36 NW8 30.29S WASHINGTON SUNNY 43 21 40 NW6 30.29R WHITEVILLE SUNNY 46 21 36 W3 30.30R $$ AMZ130-135-150-152-154-156-158-170-250-252-270-ANZ085-086-088-633-658-670-282100- MARINE OBSERVATIONS STATION/POSITION TIME TEMP WIND PRES WAVE SWELL AIR SEA DIR/SP/G HT/PER HT/PER (UTC) (F) (DEG/KT/KT) (MB) (FT/S) (FT/S) CHESAPEAKE LIGHT 1900 40 340/ 17/ 20 1024.9 64 E VA BEACH 2000 43 64 330/ 16/ 19 1023.3 6/ 7 3/13 DUCK 2000 41 52 10/ 10/ 14 1023.6 2 E DUCK 2000 54 N/A 5/ 7 2/13 10 NE DUCK 2000 56 N/A 5/ 8 2/13 OREGON INLET 2000 42 51 320/ 11/ 14 1024.4 13E OREGON INLT 2000 59 N/A 6/ 8 2/11 HATTERAS CG 2000 43 53 350/ 10/ 14 1024.8 DIAMOND BUOY 2000 45 320/ 16/ 21 1024.1 5/ 7 2/13 17 S OCRACOKE NOT AVBL CAPE LOOKOUT 1900 43 340/ 10/ 13 1025.1 BEAUFORT LAB 2000 44 54 350/ 6/ 8 1024.4 30 SE NEW RIVER 2000 44 67 340/ 8/ 12 1025.8 4/ 6 3/ 6 5 SE WRIGHTSVLE 1900 46 58 10/ 6/ 8 1025.8 225 S CAPE HAT 1920 59 72 330/ 17/ 25 1021.6 10/ 8 5/13 41 SE CHARLESTON 2000 47 72 350/ 14/ 17 1025.7 5/ 6 3/ 7 $$

USA.gov is the U.S. government's official web portal to all federal, state and local government web resources and services.